アトラス彗星

C/2022 U2 ( ATLAS )

English version
Home page
Updated on January 29, 2023

---------------------------------------------------------------------

・ プロフィール

発見日 2022年10月25日
発見光度 19.1等
発見者 Asteroid Terrestrial-Impact Last Alert System (ATLAS) search program

・ 写真集

・ 軌道要素

Epoch 2023 Feb. 25.0 TT = JDT 2460000.5
T 2023 Jan. 14.22244 TT                                 Rudenko
q   1.3280441            (2000.0)            P               Q
z  +0.0103750      Peri.  147.91038     -0.18795623     -0.76577310
 +/-0.0000369      Node   304.47545     +0.66684587     +0.36024732
e   0.9862216      Incl.   48.25055     +0.72110266     -0.53274143
>From 526 observations 2022 Oct. 25-2023 Jan. 19, mean residual 0".5.

・ 星図

・ 光度変化

        m1 = 10.0 + 5 logΔ + 20.0 log r

---------------------------------------------------------------------

軌道要素はM.P.E.C. 2023-B57に掲載されたものです。
星図はステラナビゲータ Ver.10 (アストロアーツ) で作成したものです。
光度グラフはComet for Windowsで作成したものです。

---------------------------------------------------------------------

Copyright(C) Seiichi Yoshida (comet@aerith.net). All rights reserved.